Location: Slemon Park
(46.4340°N, 63.8219°W)
Time: 17:36:41
(UTC-03:00)

Daily predictions for brighter satellites

Satellite Brightness Start Highest point End
(mag) Time Altitude Azimuth Time Altitude Azimuth Time Altitude Azimuth
Helios 1A 3.5 21:25:18 10° S 21:29:29 63° WSW 21:33:40 10° NNW
Meteor 2-9 Rocket 4.2 21:24:24 10° N 21:29:53 71° ENE 21:35:29 10° SSE
Cosmos 921 Rocket 4.3 21:27:26 10° N 21:31:24 29° ENE 21:35:17 10° ESE
SAR-Lupe-4 4.0 21:29:08 10° S 21:32:42 65° WSW 21:36:18 10° NNW
USA 81 4.4 21:27:40 10° SSW 21:32:56 71° W 21:38:15 10° N
DNEPR-1 R/B 4.2 21:28:48 10° NW 21:32:57 53° WSW 21:37:24 10° SSE
SL-27 R/B 2.6 21:30:49 10° S 21:34:25 60° ESE 21:38:02 10° NNE
Cosmos 1939 Rocket 3.2 21:30:50 10° S 21:34:40 65° W 21:38:32 10° NNW
Cosmos 1666 2.8 21:31:55 10° NNW 21:35:40 78° W 21:39:24 10° S
YAOGAN 6 2.5 21:33:26 10° SSE 21:36:56 82° ENE 21:40:27 10° N
Cosmos 1680 Rocket 3.5 21:32:18 10° SSW 21:37:32 85° ESE 21:42:46 10° NNE
Cosmos 2056 Rocket 3.8 21:33:34 10° NNW 21:38:40 54° ENE 21:43:41 10° SE
Okean 1-7 Rocket 3.7 21:36:55 10° S 21:41:17 58° E 21:45:45 10° NNE
Cosmos 1833 Rocket 4.2 21:38:19 10° SE 21:41:40 16° E 21:45:01 10° ENE
Cosmos 1437 Rocket 3.0 21:42:09 10° N 21:45:54 50° ENE 21:49:41 10° SSE
Envisat 4.0 21:41:21 10° S 21:46:13 47° W 21:51:09 10° NNW
MetOp-A 4.3 21:42:44 10° SSE 21:48:01 63° ENE 21:53:19 10° N
Meteor 2-4 Rocket 3.8 21:43:05 10° S 21:48:46 85° E 21:54:38 10° NNE
Helios 1B rocket 3.1 21:45:48 10° N 21:49:52 59° WNW 21:53:56 10° SSW
Cosmos 1606 Rocket 3.8 21:47:39 10° N 21:51:54 53° ENE 21:56:06 10° SSE
Cosmos 192 4.4 21:53:35 10° SSW 21:58:30 87° WNW 22:03:27 10° NNE
Cosmos 1726 Rocket 3.7 21:57:23 10° N 22:01:40 56° ENE 22:05:30 12° SSE
Cosmos 405 3.6 21:58:45 10° NNW 22:02:15 55° W 22:05:44 10° S
Cosmos 1025 Rocket 3.0 22:01:47 10° S 22:06:04 87° WNW 22:10:21 10° N
USA 245 2.6 22:04:55 18° SE 22:06:31 43° ENE 22:08:44 10° N
Cosmos 1515 4.0 22:06:01 10° S 22:09:37 48° E 22:13:18 10° NNE
Cosmos 1980 Rocket 3.6 22:05:02 10° N 22:09:48 27° NE 22:14:33 10° ESE
Cosmos 1452 Rocket 4.1 22:05:33 10° N 22:10:36 44° ENE 22:14:43 15° SE
Aureole 1 Rocket 3.6 22:08:15 10° SW 22:11:14 40° WNW 22:14:05 10° N
Cosmos 2181 Rocket 4.2 22:05:23 10° SSE 22:11:32 54° E 22:17:38 10° NNE
COSMOS 2487 3.3 22:09:55 14° SSE 22:12:26 31° ESE 22:15:37 10° NE
SPOT 1/Viking Rocket 3.7 22:11:02 14° SSE 22:15:24 59° ENE 22:20:29 10° N
Cosmos 2058 Rocket 3.2 22:11:43 10° N 22:16:06 59° ENE 22:19:32 16° SSE
YAOGAN 11 4.1 22:14:35 12° SSE 22:18:30 86° W 22:22:52 10° NNW
Cosmos 2322 Rocket 4.4 22:16:19 10° N 22:19:37 15° NE 22:22:55 10° ENE
DEBRIS 4.3 22:16:59 10° WSW 22:21:07 85° SSE 22:37:38 10° ENE
ARGOS 3.2 22:17:01 12° SSE 22:22:03 89° WSW 22:27:32 10° NNW
Okean 2 3.6 22:19:24 10° SSW 22:23:28 72° W 22:27:35 10° N
Lacrosse 5 rocket 3.8 22:23:10 10° NW 22:26:55 24° N 22:30:41 10° ENE
ERS-1 Rocket 3.9 22:22:19 10° S 22:27:07 46° W 22:31:58 10° NNW
Tiangong 2 1.5 22:24:11 10° WSW 22:27:12 40° S 22:28:45 23° ESE
Terra 2.6 22:29:03 18° SE 22:32:07 40° ENE 22:36:35 10° N
SPOT 5 2.8 22:30:14 15° S 22:33:50 68° WSW 22:38:12 10° NNW
H-2A R/B 2.7 22:38:05 21° SE 22:40:45 45° ENE 22:45:04 10° N
IGS 5A 4.0 22:41:45 23° SE 22:43:57 44° ENE 22:47:55 10° N
Cosmos 2278 4.0 22:39:35 10° NNW 22:45:15 64° WSW 22:49:20 19° S
USA 229 DEB 4.2 22:38:56 10° NW 22:45:57 57° NE 22:51:39 17° ESE
USA 229 4.2 22:39:03 10° NW 22:46:03 57° NE 22:51:46 17° ESE
Cosmos 2082 Rocket 2.3 22:41:56 10° S 22:47:29 58° ESE 22:53:02 10° NNE
SL-8 Rocket 4.0 22:42:44 10° N 22:49:03 89° E 22:53:49 19° S
Meteor 1-22 Rocket 4.3 22:43:52 10° N 22:49:07 59° ENE 22:52:21 24° SSE
ATLAS CENTAUR R/B 3.6 22:49:07 10° N 22:51:14 14° NNE 22:53:19 10° ENE
Cosmos 1626 Rocket 3.8 22:49:15 26° SSE 22:51:22 48° E 22:55:33 10° NNE
PSLV R/B 4.0 22:52:45 28° E 22:53:13 30° ENE 22:55:45 10° N
Cosmos 2366 rocket 4.0 22:48:36 10° N 22:54:47 75° E 22:58:51 23° SSE
ISS -2.8 22:58:56 10° W 23:02:09 48° NNW 23:05:22 10° ENE
H-2A R/B 2.3 22:59:49 20° S 23:03:14 60° W 23:08:15 10° NNW
Cosmos 2369 4.5 22:59:30 10° NW 23:04:57 46° WSW 23:08:44 19° S
Cosmos 1697 Rocket 2.7 23:00:23 10° NNW 23:06:02 84° WSW 23:09:12 27° SSE
Cosmos 2228 3.8 23:02:33 10° NNW 23:06:41 47° W 23:09:27 19° SSW
Cosmos 921 Rocket 4.5 23:05:43 10° NW 23:09:40 31° W 23:12:33 16° SSW
SL-16 R/B 3.6 23:06:59 10° N 23:11:56 30° NE 23:15:46 15° ESE
Meteor 1-4 Rocket 2.9 23:09:32 10° NNW 23:13:04 56° W 23:14:27 32° SSW
Cosmos 1656 4.1 23:08:13 10° NW 23:13:31 53° WSW 23:16:38 24° S
CZ-4B R/B 4.0 23:10:01 10° NNE 23:14:53 44° E 23:16:50 30° SSE
CZ-4C R/B 3.9 23:16:18 32° ESE 23:17:09 37° ENE 23:20:32 10° N
Iridium 2 3.8 23:17:01 10° N 23:20:47 58° E 23:21:42 43° SE
DMSP B5D2-2 4.1 23:16:30 10° NNE 23:21:49 81° WNW 23:25:40 19° SSW
Cosmos 1842 3.5 23:23:40 43° SE 23:24:31 52° E 23:28:22 10° NNE
Cosmos 1833 Rocket 2.7 23:19:13 10° SSW 23:24:50 81° WNW 23:30:31 10° NNE
Orbus 7S? 4.0 23:18:39 10° NW 23:26:06 74° NNE 23:27:51 32° ESE
Cosmos 1602 Rocket 3.6 23:23:55 28° SSW 23:26:11 75° W 23:30:32 10° N
Cosmos 1271 Rocket 2.7 23:24:29 10° N 23:28:23 79° E 23:29:26 47° SSE
Timation 2 Rocket 3.9 23:23:59 19° SSW 23:28:44 71° ESE 23:34:52 10° NNE
SL-19 R/B 4.3 23:28:07 40° S 23:29:34 84° WSW 23:33:20 10° NNW
CZ-4 R/B 3.9 23:24:54 10° NNE 23:29:56 70° ESE 23:32:13 33° S
deb Chang Zheng 4 3.5 23:28:06 10° NNE 23:32:27 89° W 23:34:19 33° SSW
Cosmos 1269 Rocket 4.0 23:30:24 30° S 23:33:01 69° ESE 23:38:19 10° NNE
Cosmos 1420 Rocket 4.5 23:33:46 10° NNW 23:38:52 52° WSW 23:41:10 30° SSW
Cosmos 1733 4.3 23:38:30 10° N 23:41:56 30° ENE 23:42:30 29° E
Cosmos 1953 2.6 23:38:24 10° N 23:42:27 58° E 23:43:18 47° SE
Cosmos 389 Rocket 2.7 23:40:19 10° N 23:43:43 52° ENE 23:43:58 51° E
DELTA 2 DEB (DPAF) 4.1 23:42:18 43° SSE 23:43:45 90° E 23:48:16 10° NNW
CZ-2C R/B 4.3 23:42:14 22° ESE 23:44:52 34° ENE 23:49:57 10° N
Cosmos 1048 Rocket 3.9 23:42:29 29° SSW 23:45:11 89° ESE 23:50:25 10° NNE
SME Rocket 3.8 23:44:43 33° SE 23:46:35 51° ENE 23:50:33 10° N
Cosmos 1331 Rocket 4.4 23:42:39 10° NNW 23:47:45 54° ENE 23:49:46 33° ESE
Cosmos 1110 Rocket 4.2 23:44:23 10° NNW 23:49:38 63° ENE 23:51:37 37° SE
Cosmos 2360 Rocket 3.8 23:47:58 10° N 23:52:42 26° NE 23:56:42 13° E
Cosmos 1980 Rocket 2.4 23:48:39 10° NNW 23:54:13 59° WSW 23:56:23 36° S
